Date String (YYYY-MM-DD hh:mm:ss) UTC,Instrument flags,Ambient pressure (hPa),Sample flow (lpm),Bypass flow (lpm),Sample temperature (°C),Ambient temperature (°C),ASC tube jacket temperature (°C),LED temperature (°C),Box temperature (°C),Sample RH (%),Span deviation,Mass concentration (μg/m³),Mass concentration (μg/m³),Mass concentration (μg/m³)
DateTimeUTC,F1_M11,P_M11,Q1_M11,Q2_M11,T1_M11,T2_M11,T3_M11,T4_M11,T5_M11,U1_M11,ZSPAN_M11,X0_M11,X2_M11,X1_M11
2022-04-07 05:00:00,,0832.4,5.01,0.00,22.1,21.3,00.0,31.1,23.9,05.6,0000.0,0003.86,0000.92,0000.48
2022-04-07 05:01:00,,0832.5,4.98,0.00,22.1,21.3,00.0,31.1,23.9,05.6,0000.0,0005.03,0000.94,0000.47
2022-04-07 05:02:00,,0832.4,5.00,0.00,22.1,21.3,00.0,31.1,23.9,05.6,0000.0,0005.23,0000.97,0000.46
2022-04-07 05:03:00,,0832.4,5.00,0.00,22.1,21.5,00.0,31.1,23.9,05.6,0000.0,0005.55,0001.00,0000.46
2022-04-07 05:04:00,,0832.4,4.99,0.00,22.2,22.2,00.0,31.1,24.1,05.6,0000.0,0005.95,0000.97,0000.45
2022-04-07 05:05:00,,0832.4,5.01,0.00,22.4,23.0,00.0,31.2,24.3,05.6,0000.0,0005.98,0000.97,0000.44
2022-04-07 05:06:00,,0832.5,5.00,0.00,22.5,23.1,00.0,31.2,24.5,05.5,0000.0,0005.83,0000.94,0000.43
2022-04-07 05:07:00,,0832.5,5.00,0.00,22.5,22.9,00.0,31.2,24.5,05.5,0000.0,0004.87,0000.93,0000.43
2022-04-07 05:08:00,,0832.5,5.00,0.00,22.5,22.7,00.0,31.2,24.4,05.6,0000.0,0004.49,0000.93,0000.42
2022-04-07 05:09:00,,0832.5,4.99,0.00,22.5,22.5,00.0,31.2,24.4,05.5,0000.0,0004.50,0000.93,0000.41
2022-04-07 05:10:00,,0832.5,5.01,0.00,22.5,22.3,00.0,31.3,24.4,05.5,0000.0,0004.61,0000.95,0000.40
2022-04-07 05:11:00,,0832.5,4.99,0.00,22.5,22.2,00.0,31.3,24.4,05.6,0000.0,0004.39,0000.92,0000.39
2022-04-07 05:12:00,,0832.5,5.01,0.00,22.5,22.1,00.0,31.3,24.3,05.6,0000.0,0003.04,0000.89,0000.39
2022-04-07 05:13:00,,0832.5,4.98,0.00,22.5,22.0,00.0,31.3,24.3,05.6,0000.0,0002.92,0000.89,0000.39
2022-04-07 05:14:00,,0832.5,5.01,0.00,22.5,21.9,00.0,31.3,24.3,05.6,0000.0,0002.53,0000.86,0000.39
2022-04-07 05:15:00,,0832.5,5.01,0.00,22.5,21.9,00.0,31.3,24.3,05.6,0000.0,0001.89,0000.87,0000.40
2022-04-07 05:16:00,,0832.4,4.99,0.00,22.5,21.8,00.0,31.3,24.3,05.6,0000.0,0001.91,0000.88,0000.41
2022-04-07 05:17:00,,0832.5,5.00,0.00,22.5,21.8,00.0,31.3,24.3,05.5,0000.0,0001.78,0000.84,0000.41
2022-04-07 05:18:00,,0832.5,5.01,0.00,22.5,21.7,00.0,31.3,24.3,05.5,0000.0,0001.94,0000.84,0000.41
2022-04-07 05:19:00,,0832.5,5.00,0.00,22.4,21.7,00.0,31.3,24.2,05.4,0000.0,0003.02,0000.82,0000.41
2022-04-07 05:20:00,,0832.5,5.00,0.00,22.4,21.7,00.0,31.3,24.2,05.4,0000.0,0003.19,0000.79,0000.41
2022-04-07 05:21:00,,0832.5,5.01,0.00,22.4,21.6,00.0,31.3,24.2,05.5,0000.0,0003.12,0000.78,0000.42
2022-04-07 05:22:00,,0832.5,5.01,0.00,22.4,21.6,00.0,31.3,24.2,05.5,0000.0,0003.18,0000.80,0000.42
2022-04-07 05:23:00,,0832.5,4.99,0.00,22.4,21.6,00.0,31.3,24.2,05.5,0000.0,0003.24,0000.83,0000.43
2022-04-07 05:24:00,,0832.5,5.00,0.00,22.4,21.6,00.0,31.3,24.1,05.5,0000.0,0003.17,0000.79,0000.42
2022-04-07 05:25:00,,0832.5,5.01,0.00,22.4,21.6,00.0,31.3,24.1,05.5,0000.0,0003.12,0000.76,0000.41
2022-04-07 05:26:00,,0832.5,5.00,0.00,22.4,21.5,00.0,31.3,24.1,05.5,0000.0,0003.25,0000.79,0000.41
2022-04-07 05:27:00,,0832.6,4.99,0.00,22.4,21.5,00.0,31.3,24.1,05.5,0000.0,0003.29,0000.82,0000.40
2022-04-07 05:28:00,,0832.6,5.00,0.00,22.4,21.5,00.0,31.3,24.1,05.5,0000.0,0003.44,0000.85,0000.40
2022-04-07 05:29:00,,0832.6,4.99,0.00,22.3,21.5,00.0,31.3,24.1,05.4,0000.0,0003.43,0000.89,0000.40
2022-04-07 05:30:00,,0832.6,5.00,0.00,22.3,21.5,00.0,31.3,24.1,05.4,0000.0,0003.10,0000.91,0000.39
2022-04-07 05:31:00,,0832.6,5.01,0.00,22.3,21.5,00.0,31.3,24.1,05.5,0000.0,0003.11,0000.97,0000.39
2022-04-07 05:32:00,,0832.7,5.01,0.00,22.3,21.4,00.0,31.3,24.1,05.4,0000.0,0003.08,0000.95,0000.39
2022-04-07 05:33:00,,0832.7,5.00,0.00,22.3,21.4,00.0,31.3,24.0,05.5,0000.0,0003.72,0000.96,0000.38
2022-04-07 05:34:00,,0832.7,5.00,0.00,22.3,21.4,00.0,31.2,24.0,05.5,0000.0,0004.12,0000.93,0000.38
2022-04-07 05:35:00,,0832.7,4.99,0.00,22.3,21.4,00.0,31.2,24.0,05.5,0000.0,0004.35,0000.97,0000.38
2022-04-07 05:36:00,,0832.6,5.00,0.00,22.2,21.4,00.0,31.2,24.0,05.6,0000.0,0004.66,0001.01,0000.40
2022-04-07 05:37:00,,0832.6,5.00,0.00,22.2,21.4,00.0,31.2,24.0,05.6,0000.0,0004.73,0001.02,0000.40
2022-04-07 05:38:00,,0832.6,5.01,0.00,22.2,21.4,00.0,31.2,24.0,05.6,0000.0,0005.59,0001.00,0000.40
2022-04-07 05:39:00,,0832.6,5.00,0.00,22.2,21.3,00.0,31.2,23.9,05.6,0000.0,0006.27,0001.00,0000.40
2022-04-07 05:40:00,,0832.6,4.98,0.00,22.2,21.3,00.0,31.2,23.9,05.6,0000.0,0006.21,0000.98,0000.40
2022-04-07 05:41:00,,0832.6,5.01,0.00,22.2,21.3,00.0,31.2,23.9,05.6,0000.0,0005.56,0000.95,0000.40
2022-04-07 05:42:00,,0832.6,5.01,0.00,22.2,21.3,00.0,31.2,23.9,05.5,0000.0,0005.04,0000.88,0000.41
2022-04-07 05:43:00,,0832.6,5.00,0.00,22.2,21.3,00.0,31.1,23.9,05.5,0000.0,0005.16,0000.91,0000.41
2022-04-07 05:44:00,,0832.6,5.00,0.00,22.2,21.3,00.0,31.1,23.9,05.5,0000.0,0004.62,0000.94,0000.42
2022-04-07 05:45:00,,0832.7,5.00,0.00,22.2,21.3,00.0,31.1,23.9,05.5,0000.0,0004.12,0000.94,0000.42
2022-04-07 05:46:00,,0832.7,4.98,0.00,22.2,21.3,00.0,31.1,23.9,05.5,0000.0,0004.10,0000.93,0000.42
2022-04-07 05:47:00,,0832.7,5.01,0.00,22.1,21.3,00.0,31.1,23.9,05.5,0000.0,0004.05,0000.96,0000.42
2022-04-07 05:48:00,,0832.7,5.01,0.00,22.1,21.3,00.0,31.1,23.9,05.5,0000.0,0004.01,0000.92,0000.41
2022-04-07 05:49:00,,0832.7,5.01,0.00,22.1,21.3,00.0,31.1,23.9,05.5,0000.0,0002.98,0000.90,0000.41
2022-04-07 05:50:00,,0832.7,4.98,0.00,22.1,21.3,00.0,31.1,23.9,05.5,0000.0,0002.32,0000.89,0000.42
2022-04-07 05:51:00,,0832.7,5.01,0.00,22.1,21.3,00.0,31.1,23.9,05.4,0000.0,0002.37,0000.92,0000.42
2022-04-07 05:52:00,,0832.7,5.00,0.00,22.1,21.3,00.0,31.1,23.9,05.5,0000.0,0002.66,0000.93,0000.42
2022-04-07 05:53:00,,0832.8,5.01,0.00,22.1,21.2,00.0,31.1,23.8,05.5,0000.0,0003.68,0000.95,0000.41
2022-04-07 05:54:00,,0832.7,4.99,0.00,22.1,21.3,00.0,31.1,23.8,05.5,0000.0,0003.75,0000.96,0000.42
2022-04-07 05:55:00,,0832.7,5.01,0.00,22.2,21.9,00.0,31.1,24.0,05.5,0000.0,0003.71,0000.95,0000.41
2022-04-07 05:56:00,,0832.8,4.99,0.00,22.3,22.8,00.0,31.1,24.2,05.4,0000.0,0003.74,0000.95,0000.41
2022-04-07 05:57:00,,0832.7,5.00,0.00,22.4,23.1,00.0,31.2,24.4,05.4,0000.0,0003.90,0000.95,0000.41
2022-04-07 05:58:00,,0832.7,5.00,0.00,22.4,22.9,00.0,31.2,24.4,05.4,0000.0,0004.51,0000.90,0000.41
2022-04-07 05:59:00,,0832.8,5.00,0.00,22.4,22.6,00.0,31.2,24.3,05.3,0000.0,0004.51,0000.92,0000.41
